Location: Mahannah Oil Field
(37.4664°N, 96.6003°W)
Time: 18:51:14
(UTC+00:00)

Vanguard 2 Rocket - Pass Details

Date: 27 January 2021
Orbit: 554 x 3326 km, 32.9° (Epoch: 25 February)

Event Time Altitude Azimuth Distance (km) Brightness Sun altitude
Rises 02:40:15 0° 275° (W) 4,355 11.4 -34.9°
Reaches altitude 10° 02:44:43 10° 258° (WSW) 2,868 10.2 -35.8°
Maximum altitude 02:48:51 17° 219° (SW) 1,956 8.9 -36.6°
Enters shadow 02:48:59 17° 217° (SW) 1,945 8.8 -36.6°
Drops below altitude 10° 02:52:05 10° 176° (S) 2,139 - -37.2°
Sets 02:54:47 0° 155° (SSE) 2,859 - -37.8°
